Content
SEND FEEDBACK

Daily
Averages
Monthly
Summary
Ireland

DUBLIN, IRELAND


Home > Europe > Ireland
Elevation: 279 feet     Latitude: 53 26N     Longitude: 006 15W

WEATHER
 
SELECT A DAY
Number of Records: 317,071;   Date Range: 7/1/96 - 4/18/14
 
SHARE

PRINT THIS DATA

[ ← Previous Day ]
WEATHER ALMANAC - APRIL 1, 2013
[ Next Day → ]
[ °C ]   °F
Weather ElementAverageHighLow
Temperature37.3 °F39.2 °F (3:00 pm)35.6 °F (4:00 am)
Dewpoint26.8 °F28.4 °F (12:30 am)24.8 °F (11:00 am)
Humidity65.3 %75 % (9:30 am)48 % (1:00 pm)
Barometer29.87 in29.92 in (7:00 pm)29.83 in (12:30 am)
Wind Speed17.3 mph22.4 mph (1:00 pm)
Wind Gust29.9 mph (10:00 am)
Weather ElementAverage
Visibility7.6 mi
Wind DirectionESE (106.5 °)

Weather ElementTotal
Precipitation---
Heating Degree Days27.6 (Base 65)
Averaged from 51 records on April 1, 2013
WEATHER CONDITIONS BREAKOUT
WIND DIRECTION BREAKOUT
WEATHER BY HOUR - APRIL 1, 2013
[ °C ]   °F
Local TimeTemperatureDewpointHumidityBarometerVisibilityWind DirectionWind SpeedGust SpeedPrecipitationEventsConditions
12:30 AM37.4 °F28.4 °F70 %29.83 in6.2 miESE (110°)17.3 mphPartly Cloudy
1:00 AM37.0 °F28.0 °F60 %29.85 in22.0 miESE (120°)17.9 mphScattered Clouds
1:00 AM37.4 °F28.4 °F70 %29.83 in6.2 miESE (120°)18.4 mphPartly Cloudy
1:30 AM37.4 °F28.4 °F70 %29.83 in6.2 miESE (120°)19.6 mphPartly Cloudy
2:00 AM37.4 °F28.4 °F70 %29.83 in6.2 miESE (120°)19.6 mphPartly Cloudy
2:30 AM37.4 °F26.6 °F65 %29.83 in6.2 miESE (120°)20.7 mphPartly Cloudy
3:00 AM37.4 °F26.6 °F65 %29.83 in6.2 miESE (110°)20.7 mphScattered Clouds
3:30 AM37.4 °F26.6 °F65 %29.83 in6.2 miESE (110°)17.3 mphMostly Cloudy
4:00 AM35.6 °F26.6 °F70 %29.83 in6.2 miESE (110°)16.1 mphMostly Cloudy
4:30 AM35.6 °F26.6 °F70 %29.83 in6.2 miESE (110°)18.4 mphMostly Cloudy
5:00 AM35.6 °F26.6 °F70 %29.83 in6.2 miESE (110°)16.1 mphMostly Cloudy
5:30 AM35.6 °F26.6 °F70 %29.83 in6.2 miESE (110°)16.1 mphMostly Cloudy
6:00 AM35.6 °F26.6 °F70 %29.83 in6.2 miEast (100°)17.3 mphMostly Cloudy
6:30 AM35.6 °F26.6 °F70 %29.83 in6.2 miEast (100°)16.1 mphMostly Cloudy
7:00 AM36.0 °F27.0 °F58 %29.86 in25.0 miEast (100°)15.7 mphMostly Cloudy
7:00 AM35.6 °F26.6 °F70 %29.83 in6.2 miEast (100°)15.0 mphMostly Cloudy
7:30 AM35.6 °F26.6 °F70 %29.83 in6.2 miESE (110°)19.6 mphMostly Cloudy
8:00 AM35.6 °F26.6 °F70 %29.83 in6.2 miEast (100°)18.4 mphMostly Cloudy
8:30 AM35.6 °F26.6 °F70 %29.83 in6.2 miESE (110°)17.3 mphLight Drizzle
9:00 AM35.6 °F26.6 °F70 %29.83 in6.2 miESE (110°)16.1 mphLight Drizzle
9:30 AM35.6 °F28.4 °F75 %29.86 in6.2 miEast (100°)18.4 mphMostly Cloudy
10:00 AM35.6 °F26.6 °F70 %29.86 in6.2 miESE (110°)18.4 mph29.9 mphMostly Cloudy
10:30 AM35.6 °F26.6 °F70 %29.86 in6.2 miESE (110°)19.6 mphMostly Cloudy
11:00 AM35.6 °F24.8 °F65 %29.86 in6.2 miESE (110°)19.6 mphMostly Cloudy
11:30 AM37.4 °F26.6 °F65 %29.86 in6.2 miESE (120°)19.6 mphMostly Cloudy
12:00 PM35.6 °F26.6 °F70 %29.89 in6.2 miESE (110°)19.6 mphMostly Cloudy
12:30 PM37.4 °F24.8 °F60 %29.89 in6.2 miESE (110°)21.9 mphMostly Cloudy
1:00 PM38.0 °F25.0 °F48 %29.91 in25.0 miESE (110°)22.4 mphPartly Cloudy
1:00 PM37.4 °F26.6 °F65 %29.89 in6.2 miESE (110°)20.7 mphMostly Cloudy
1:30 PM37.4 °F26.6 °F65 %29.89 in6.2 miESE (110°)18.4 mphMostly Cloudy
2:00 PM37.4 °F24.8 °F60 %29.89 in6.2 miESE (120°)21.9 mphMostly Cloudy
2:30 PM37.4 °F26.6 °F65 %29.89 in6.2 miESE (110°)17.3 mphMostly Cloudy
3:00 PM39.2 °F26.6 °F61 %29.89 in6.2 miEast (100°)19.6 mphMostly Cloudy
3:30 PM39.2 °F26.6 °F61 %29.89 in6.2 miEast (100°)19.6 mphMostly Cloudy
4:00 PM39.2 °F26.6 °F61 %29.89 in6.2 miEast (100°)16.1 mphMostly Cloudy
4:30 PM39.2 °F26.6 °F61 %29.89 in6.2 miESE (110°)17.3 mphMostly Cloudy
5:00 PM39.2 °F26.6 °F61 %29.89 in6.2 miEast (100°)13.8 mphMostly Cloudy
5:30 PM39.2 °F28.4 °F65 %29.89 in6.2 miESE (110°)10.4 mphMostly Cloudy
6:00 PM39.2 °F26.6 °F61 %29.89 in6.2 miEast (100°)15.0 mphMostly Cloudy
6:30 PM39.2 °F28.4 °F65 %29.89 in6.2 miEast (100°)13.8 mphMostly Cloudy
7:00 PM39.0 °F27.0 °F51 %29.92 in25.0 miEast (100°)13.4 mphMostly Cloudy
7:00 PM39.2 °F26.6 °F61 %29.89 in6.2 miEast (100°)13.8 mphMostly Cloudy
7:30 PM39.2 °F26.6 °F61 %29.89 in6.2 miEast (100°)16.1 mphMostly Cloudy
8:00 PM39.2 °F26.6 °F61 %29.89 in6.2 miEast (100°)13.8 mphMostly Cloudy
8:30 PM39.2 °F28.4 °F65 %29.92 in6.2 miEast (90°)15.0 mphMostly Cloudy
9:00 PM39.2 °F26.6 °F61 %29.92 in6.2 miESE (110°)16.1 mphMostly Cloudy
9:30 PM37.4 °F26.6 °F65 %29.92 in6.2 miEast (100°)13.8 mphMostly Cloudy
10:00 PM37.4 °F28.4 °F70 %29.92 in6.2 miEast (90°)16.1 mphMostly Cloudy
10:30 PM37.4 °F26.6 °F65 %29.92 in6.2 miEast (90°)16.1 mphMostly Cloudy
11:00 PM37.4 °F26.6 °F65 %29.92 in6.2 miEast (100°)16.1 mphMostly Cloudy
11:30 PM35.6 °F26.6 °F70 %29.92 in6.2 miEast (100°)15.0 mphScattered Clouds
Hourly data recorded from EIDW, located 0.49 miles away from Dublin, Ireland







STORIES FROM OUR PARTNERS